EA3KZ-1 Weather Reports


time (UTC)temp
C
wind
direction
speed
KPH
gust
KPH
rain 1hr
cm
rain 24hr
cm
rain mn
cm
humidity
%
barometer
mb
20260506175529 17 55 6.4 17.7 0.00 0.00 0.00 63 1006.6
20260506174526 17 21 9.7 20.9 0.00 0.00 0.00 62 1006.5
20260506173518 17 333 6.4 20.9 0.00 0.00 0.00 59 1006.1
20260506172515 17 20 8.0 14.5 0.00 0.00 0.00 56 1006.1
20260506171607 18 55 3.2 9.7 0.00 0.03 0.00 54 1006.2
20260506170604 18 159 1.6 6.4 0.00 0.03 0.00 55 1006.1
20260506165557 18 100 1.6 6.4 0.00 0.03 0.00 54 1006.0
20260506164554 18 100 3.2 9.7 0.00 0.05 0.00 55 1006.0
20260506163551 18 102 4.8 14.5 0.00 0.05 0.00 55 1005.9
20260506162543 18 104 4.8 17.7 0.00 0.10 0.00 55 1005.9
20260506161540 19 118 3.2 9.7 0.00 0.10 0.00 54 1005.8
20260506160533 19 115 3.2 17.7 0.00 0.13 0.00 54 1005.7
20260506155530 18 71 4.8 17.7 0.00 0.61 0.00 55 1005.7
20260506154527 18 153 4.8 17.7 0.00 0.84 0.00 55 1005.6
20260506153519 20 119 6.4 14.5 0.00 0.84 0.00 52 1005.7
20260506152517 20 87 6.4 17.7 0.00 0.84 0.00 49 1005.6
20260506151608 20 149 4.8 12.9 0.00 0.84 0.00 49 1005.7
20260506150605 20 139 3.2 12.9 0.00 0.84 0.00 48 1005.7
20260506145603 20 119 6.4 11.3 0.00 0.84 0.00 49 1005.7
20260506144554 20 99 8.0 17.7 0.00 0.84 0.00 47 1005.9
20260506143551 20 108 6.4 17.7 0.00 0.84 0.00 46 1005.9
20260506142543 20 127 6.4 17.7 0.00 0.84 0.00 48 1006.0
20260506141540 20 129 8.0 17.7 0.00 0.84 0.00 48 1006.1
20260506140533 20 132 8.0 14.5 0.00 0.84 0.00 46 1006.2
20260506135530 20 142 4.8 14.5 0.00 0.84 0.00 45 1006.3
20260506134528 19 170 8.0 14.5 0.00 0.84 0.00 44 1006.3
20260506133519 20 105 3.2 14.5 0.00 0.84 0.00 43 1006.3
20260506132516 20 196 4.8 17.7 0.00 0.84 0.00 44 1006.4
20260506131608 19 133 11.3 17.7 0.00 0.84 0.00 44 1006.5
20260506130605 20 143 4.8 17.7 0.00 0.84 0.00 44 1006.6
20260506125603 19 195 6.4 22.5 0.00 0.84 0.00 47 1006.6
20260506124555 19 154 9.7 22.5 0.00 0.84 0.00 46 1006.6
20260506123552 20 162 4.8 17.7 0.00 0.84 0.00 45 1006.7
20260506122544 19 121 6.4 17.7 0.00 0.84 0.00 47 1006.7
20260506121541 18 123 6.4 17.7 0.00 0.84 0.00 48 1006.8
20260506120539 20 130 8.0 17.7 0.00 0.84 0.00 44 1006.8
20260506115530 19 103 6.4 17.7 0.00 0.84 0.00 46 1006.8
20260506114528 18 176 4.8 11.3 0.00 0.84 0.00 46 1007.0
20260506113519 18 100 4.8 12.9 0.00 0.84 0.00 48 1006.9
20260506112516 18 143 4.8 9.7 0.00 0.84 0.00 49 1007.1
20260506111610 18 122 3.2 17.7 0.00 0.84 0.00 51 1007.3
20260506110605 17 129 4.8 12.9 0.00 0.84 0.00 54 1007.4
20260506105603 17 127 4.8 12.9 0.00 0.84 0.00 56 1007.4
20260506104555 18 121 1.6 6.4 0.00 0.84 0.00 55 1007.4
20260506103552 17 118 1.6 6.4 0.00 0.84 0.00 58 1007.5
20260506102544 17 277 3.2 6.4 0.00 0.84 0.00 57 1007.6
20260506101541 16 130 4.8 12.9 0.00 0.84 0.00 58 1007.6
20260506100539 16 114 4.8 11.3 0.00 0.84 0.00 58 1007.6
20260506095531 16 141 4.8 9.7 0.00 0.84 0.00 59 1007.9
20260506094529 15 135 3.2 6.4 0.00 0.84 0.00 61 1007.9
20260506093520 15 176 6.4 12.9 0.00 0.84 0.00 61 1007.9
20260506092517 15 215 4.8 9.7 0.00 0.84 0.00 61 1008.0
20260506091515 15 174 4.8 14.5 0.00 0.84 0.00 60 1007.8
20260506090606 15 179 6.4 12.9 0.00 0.84 0.00 61 1007.7
20260506085604 15 208 6.4 14.5 0.00 0.84 0.00 61 1007.7
20260506084555 15 206 4.8 12.9 0.00 0.84 0.00 60 1007.8
20260506083553 14 213 6.4 11.3 0.00 0.84 0.00 60 1007.6
20260506082544 14 146 0.0 6.4 0.00 0.84 0.00 64 1007.6
20260506081541 13 214 4.8 11.3 0.00 0.84 0.00 64 1007.5
20260506080539 13 229 8.0 17.7 0.00 0.84 0.00 64 1007.5
20260506073520 12 230 6.4 14.5 0.00 0.84 0.00 70 1007.3
20260506072517 12 217 6.4 12.9 0.00 0.84 0.00 72 1007.2
20260506071515 11 228 9.7 17.7 0.00 0.84 0.00 74 1007.2
20260506070607 11 214 11.3 22.5 0.00 0.84 0.00 74 1007.2
20260506061542 11 242 6.4 11.3 0.00 0.84 0.00 76 1007.2
20260506060540 11 227 4.8 6.4 0.00 0.84 0.00 77 1007.1
20260506050607 10 248 1.6 9.7 0.00 0.84 0.00 80 1006.6
20260506044556 10 244 3.2 6.4 0.00 0.84 0.00 81 1006.5
20260506043554 9 243 3.2 6.4 0.00 0.84 0.00 82 1006.5
20260506042551 9 218 3.2 6.4 0.00 0.84 0.00 82 1006.5
20260506041542 10 0.0 3.2 0.00 0.84 0.00 81 1006.3
20260506040540 10 206 1.6 6.4 0.00 0.84 0.00 80 1006.3
20260506035531 10 248 1.6 6.4 0.00 0.84 0.00 78 1006.2
20260506034529 10 253 3.2 6.4 0.00 0.84 0.00 80 1006.1
20260506033520 10 274 3.2 6.4 0.00 0.84 0.00 80 1006.2
20260506032517 10 0.0 0.0 0.00 0.84 0.00 80 1006.2
20260506031515 10 263 3.2 6.4 0.00 0.84 0.00 79 1006.2
20260506030607 11 290 1.6 6.4 0.00 0.84 0.00 77 1006.3
20260506025605 11 292 6.4 11.3 0.00 0.84 0.00 75 1006.2
20260506024556 11 258 4.8 9.7 0.00 0.84 0.00 75 1006.2
20260506023554 11 260 4.8 11.3 0.00 0.84 0.00 74 1006.3
20260506022551 11 267 3.2 6.4 0.00 0.84 0.00 77 1006.1
20260506021543 11 293 0.0 3.2 0.00 0.84 0.00 77 1006.1
20260506020541 11 339 1.6 6.4 0.00 0.84 0.00 76 1006.0
20260506015532 11 315 3.2 6.4 0.00 0.84 0.00 77 1005.8
20260506014530 11 309 3.2 9.7 0.00 0.84 0.00 76 1005.9
20260506013527 11 0.0 3.2 0.00 0.84 0.00 79 1005.9
20260506012519 11 135 0.0 3.2 0.00 0.84 0.00 80 1006.0
20260506011516 11 113 1.6 3.2 0.00 0.84 0.00 79 1006.0
20260506010608 11 113 0.0 3.2 0.00 0.84 0.00 79 1006.0
20260506005606 11 127 1.6 9.7 0.00 0.84 0.00 82 1006.1
20260506004604 10 0.0 0.0 0.00 0.84 0.00 85 1006.1
20260506003555 10 211 1.6 3.2 0.00 0.84 0.00 85 1006.3
20260506002552 11 180 1.6 3.2 0.00 0.84 0.00 84 1006.2
20260506001544 11 105 1.6 6.4 0.00 0.84 0.00 85 1006.4
20260506000542 11 0.0 0.0 0.00 0.84 0.00 81 1006.3
20260505235539 11 283 1.6 3.2 0.00 0.84 0.84 82 1006.3
20260505234531 11 262 1.6 6.4 0.00 0.84 0.84 84 1006.4
20260505233528 11 302 1.6 3.2 0.00 0.84 0.84 87 1006.4
20260505232520 11 0 0.0 3.2 0.00 0.84 0.84 88 1006.5
20260505231518 11 230 1.6 3.2 0.00 0.84 0.84 88 1006.3
20260505230515 11 248 0.0 3.2 0.00 0.84 0.84 86 1006.3
20260505225607 11 297 1.6 3.2 0.00 0.84 0.84 85 1006.1
20260505224604 11 230 1.6 3.2 0.00 0.84 0.84 84 1006.5
20260505223557 12 208 1.6 3.2 0.00 0.84 0.84 81 1006.7
20260505222554 12 231 1.6 3.2 0.00 0.84 0.84 80 1006.8
20260505221551 12 267 3.2 6.4 0.00 0.84 0.84 82 1006.8
20260505220543 12 236 3.2 3.2 0.00 0.84 0.84 81 1007.2
20260505215540 12 229 4.8 6.4 0.00 0.84 0.84 80 1007.1
20260505214533 12 225 1.6 6.4 0.00 0.84 0.84 80 1007.1
20260505213530 12 228 1.6 6.4 0.00 0.84 0.84 82 1007.2
20260505212527 11 234 4.8 9.7 0.00 0.84 0.84 84 1007.2
20260505211519 11 233 4.8 6.4 0.00 0.84 0.84 85 1007.2
20260505210516 11 189 3.2 6.4 0.00 0.84 0.84 83 1006.9
20260505205608 12 233 6.4 11.3 0.00 0.84 0.84 83 1006.9
20260505204605 12 229 4.8 6.4 0.00 0.84 0.84 82 1006.7
20260505203603 12 248 3.2 6.4 0.00 0.84 0.84 83 1006.8
20260505203036 12 236 3.2 6.4 0.00 0.84 0.84 83 1006.7
20260505202034 11 234 3.2 6.4 0.00 0.89 0.84 85 1006.6
20260505201031 11 190 1.6 6.4 0.00 0.99 0.84 85 1006.5
20260505200029 12 244 1.6 3.2 0.00 0.99 0.84 84 1006.2
20260505195026 12 224 1.6 3.2 0.00 0.99 0.84 83 1005.9
20260505194023 12 0.0 0.0 0.00 1.02 0.84 82 1005.7
20260505193021 12 243 1.6 3.2 0.00 1.02 0.84 79 1005.6
20260505192018 12 295 4.8 9.7 0.00 1.02 0.84 79 1005.6
20260505191016 12 255 6.4 12.9 0.00 1.02 0.84 81 1005.6
20260505190113 12 248 4.8 6.4 0.00 1.02 0.84 81 1005.8
20260505185110 12 261 3.2 6.4 0.00 1.02 0.84 83 1005.7
20260505184107 12 241 3.2 6.4 0.00 1.02 0.84 84 1005.6
20260505183104 12 237 4.8 9.7 0.00 1.02 0.84 84 1005.6
20260505182101 11 248 4.8 6.4 0.00 1.02 0.84 87 1005.6
20260505181059 11 238 3.2 6.4 0.03 1.02 0.84 90 1005.6
20260505180056 11 231 3.2 6.4 0.03 1.02 0.84 91 1005.5